441  
SXUS52 KTAE 220218  
OSOTAE  
OSOTAE  
NORTH FLORIDA/SOUTH ALABAMA/SOUTHWEST GEORGIA WEATHER ROUNDUP  
NATIONAL WEATHER SERVICE TALLAHASSEE FLORIDA  
1000 PM EDT MON MAY 21 2018  
 
NOTE: "FAIR" INDICATES FEW OR NO CLOUDS BELOW 12,000 FEET WITH NO  
SIGNIFICANT WEATHER AND/OR OBSTRUCTIONS TO VISIBILITY.  
 
!FLZ017-115-028-034-025-220300   
..NORTH FLORIDA
 
 
 
CITY SKY/WX TMP DP RH WIND PRES REMARKS  
TALLAHASSEE MOCLDY 75 70 84 SE10 30.04R  
APALACHICOLA MOCLDY 78 75 90 SE13 30.02R  
PERRY CLOUDY 73 71 92 CALM 30.08R  
CROSS CITY FAIR 72 N/A N/A NE5 30.08S  
JACKSONVILLE MOCLDY 76 72 87 E7 30.11R  

 
 
!FLZ112-006-005-002-011-220300   
..FLORIDA PANHANDLE
 
 
 
CITY SKY/WX TMP DP RH WIND PRES REMARKS  
MARIANNA MOCLDY 74 73 97 CALM 30.02R  
BONIFAY CLOUDY 75 72 90 CALM 30.03R  
PANAMA CITY NW FAIR 74 70 87 S3 30.01R  
TYNDALL AFB NOT AVBL  
TYND DRONE APT NOT AVBL  
DE FUNIAK SPR MOCLDY 72 71 98 CALM 30.03R  
EGLIN AFB NOT AVBL  
DESTIN FAIR 77 69 76 SE8 30.00S  
HURLBURT NOT AVBL  
CRESTVIEW MOCLDY 72 70 93 CALM 30.03R  
PENSACOLA TSTM 72 69 90 S14 30.02R FOG  

 
 
!ALZ063-066-220300   
..SOUTH ALABAMA
 
 
 
CITY SKY/WX TMP DP RH WIND PRES REMARKS  
DOTHAN CLOUDY 72 69 90 E6 30.06R  
OZARK CAIRNS NOT AVBL  
FT RUCKER HELI NOT AVBL  
RUCKER HELI 3 NOT AVBL  
RUCKER HELI 2 NOT AVBL  
FLORALA APT CLOUDY 72 70 93 E3 30.04R  
ANDALUSIA MOCLDY 74 70 87 CALM 30.02R  
TROY MOCLDY 70 68 93 CALM 30.05R  
EUFALA LGT RAIN 73 71 93 NE5 30.05R  
MOBILE FAIR 74 71 91 W5 30.00S  

 
 
!GAZ120>161-220300   
..SOUTHWEST AND SOUTH CENTRAL GEORGIA
 
 
 
CITY SKY/WX TMP DP RH WIND PRES REMARKS  
THOMASVILLE FAIR N/A N/A N/A SE5 30.08S  
BAINBRIDGE FAIR 73 73 100 SE6 30.05R  
MOODY AFB NOT AVBL  
VALDOSTA FAIR 73 69 87 E5 30.07R  
MOULTRIE MOCLDY 72 70 94 E5 30.08S  
BLAKELY FAIR 72 70 94 CALM 30.05R  
ALBANY FAIR 72 70 93 E6 30.08R  
TIFTON CLOUDY 74 68 82 SE3 30.09R  
FITZGERALD FAIR 74 69 83 SE6 30.12R  
CORDELE FAIR 74 71 89 CALM 30.10R  
AMERICUS FAIR 70 64 83 SE3 30.10F  
HOMERVILLE CLOUDY 72 70 94 E6 30.10S  

 
 
!GMZ750-755-770-775-220300   
..COASTAL AND BUOY OBS
 
 
 
STATION/POSITION TIME TEMP WIND PRES VSBY WAVE  
AIR SEA DIR/SP/G HT/PER  
(UTC) (F) (DEG/KT/KT) (MB) (MI) (FT/S)  
KEATON BEACH 0200 72 80/ 9/ 11 1018.1S  
CEDAR KEY 0200 75 110/ 13/ 14 1018.4S  
C TOWER 0200 76 130/ 13/ 14 1017.1R  
APALACHICOLA BUO NOT AVBL  
PANAMA CITY BUOY 0150 79 80 150/ 8/ 10 1015.7R 3/ 6  
MOBILE BUOY 0150 83 120/ 4/ 6 1015.9R 2/ 6  
ORANGE BCH AL BU 0150 79 220/ 8/ 10 1015.6R 2/ 5  

 
 
 
CLICK HERE TO GO TO PREVIOUS BULLETINS.

The Nexlab FL Page
The Nexlab GA Page
The Nexlab AL Page Main Text Page